Rome Urbe AFB, Italy

1:16 PM CEST on April 22, 2018 (GMT +0200)
Urbe

Weather History for LIRU - March, 2012

Change the Weather History Date:

Tuesday, March 20, 2012

  Actual Average Record
Temperature  
Mean Temperature 58 °F -  
Max Temperature 69 °F 65 °F 71 °F (2014)
Min Temperature 48 °F 43 °F 32 °F (2008)
Degree Days  
Heating Degree Days 6    
Growing Degree Days 8 (Base 50)    
Moisture  
Dew Point 47 °F    
Average Humidity 70    
Maximum Humidity 100    
Minimum Humidity 37    
Precipitation  
Precipitation 0.00 in 0.09 in - ()
Sea Level Pressure  
Sea Level Pressure 30.41 in    
Wind  
Wind Speed 2 mph ()    
Max Wind Speed 10 mph    
Max Gust Speed -    
Visibility 1.9 miles    
Events Fog    
Averages and records for this station are not official NWS values.
T = Trace of Precipitation, MM = Missing Value Source: Averaged Metar Reports

Daily Weather History Graph

Daily Weather History Graph

Search for Another Location

Airport or City:

Astronomy

Mar. 20, 2012 Rise Set
Actual Time 6:12 AM CET 6:22 PM CET
Civil Twilight 5:45 AM CET 6:50 PM CET
Nautical Twilight 5:12 AM CET 7:22 PM CET
Astronomical Twilight 4:39 AM CET 7:56 PM CET
Moon 4:48 AM CET (3/20) 4:32 PM CET (3/20)
Length of Visible Light 13h 05m
Length of Day
12h 09m
Waning Crescent, 5% of the Moon is Illuminated
Mar 20
Waning Crescent
Mar 22
New
Mar 30
First Quarter
Apr 6
Full
Apr 13
Last Quarter

Hourly Weather History & Observations

Time (CET) Temp. Dew Point Humidity Pressure Visibility Wind Dir Wind Speed Gust Speed Precip Events Conditions
7:24 AM 48.2 °F 48.2 °F 100% 30.39 in 0.1 mi Variable 2.3 mph - N/A Fog Fog
7:50 AM 50.0 °F 50.0 °F 100% 30.39 in 0.1 mi Variable 2.3 mph - N/A Fog Fog
8:50 AM 51.8 °F 51.8 °F 100% 30.45 in 0.3 mi Variable 1.2 mph - N/A Fog Fog
9:04 AM 53.6 °F 53.6 °F 100% 30.45 in 0.5 mi Calm Calm - N/A Fog Fog
9:15 AM 55.4 °F 55.4 °F 100% 30.45 in 0.9 mi Variable 1.2 mph - N/A   Mist
9:26 AM 55.4 °F 55.4 °F 100% 30.45 in 1.9 mi Variable 1.2 mph - N/A   Mist
9:50 AM 55.4 °F 55.4 °F 100% 30.45 in 2.5 mi Variable 1.2 mph - N/A   Mist
10:00 AM 57.2 °F 55.4 °F 94% 30.45 in 3.1 mi Variable 1.2 mph - N/A   Mist
10:50 AM 62.6 °F 51.8 °F 68% 30.45 in 5.0 mi Variable 2.3 mph - N/A   Unknown
11:50 AM 68.0 °F 44.6 °F 43% 30.42 in 5.0 mi Calm Calm - N/A   Unknown
12:50 PM 68.0 °F 41.0 °F 37% 30.42 in - Variable 2.3 mph - N/A   Clear
1:50 PM 69.8 °F 42.8 °F 38% 30.39 in - SSW 5.8 mph - N/A   Clear
2:50 PM 69.8 °F 44.6 °F 40% 30.36 in - WNW 6.9 mph - N/A   Clear
3:50 PM 68.0 °F 48.2 °F 49% 30.36 in - West 10.4 mph - N/A   Clear
4:50 PM 66.2 °F 39.2 °F 37% 30.36 in - WNW 9.2 mph - N/A   Clear
5:50 PM 62.6 °F 42.8 °F 48% 30.39 in - West 6.9 mph - N/A   Clear
6:50 PM 60.8 °F 44.6 °F 55% 30.39 in - West 4.6 mph - N/A   Clear
7:50 PM 55.4 °F 44.6 °F 67% 30.42 in - Calm Calm - N/A   Clear
8:50 PM 51.8 °F 32.0 °F 47% 30.42 in - Variable 1.2 mph - N/A   Clear
9:50 PM 50.0 °F 44.6 °F 82% 30.42 in - Calm Calm - N/A   Clear